Volver al catálogo

THORAD AGENA D DEB

ActivoPO
NORAD 4913·DEBRIS·🇺🇸 United States

Lanzado Apr 8, 1970 desde Vandenberg Space Force Base

Loading…

Próximos Pases (próximas 24 horas)

TLE

ActualizadoSource: Space-Track

Época: Sep 14, 2026, 06:12 UTC

1 04913U 70025FK  26257.25875516  .00000133  00000-0  11233-3 0  9992
2 04913  99.8117 359.0121 0137206 319.9556  39.1553 14.01743130866462

Sigue THORAD AGENA D DEB en tiempo real con AllMySat

Download on the App Store